FW7847 Weather Reports


time (UTC)temp
C
wind
direction
speed
KPH
gust
KPH
rain 1hr
cm
rain 24hr
cm
rain mn
cm
humidity
%
barometer
mb
20260503175904 16 200 16.1 35.4 0.00 0.00 0.00 45 1011.9
20260503175403 16 222 14.5 30.6 0.00 0.00 0.00 44 1012.2
20260503174858 16 236 22.5 49.9 0.00 0.00 0.00 43 1012.4
20260503174356 16 323 6.4 38.6 0.00 0.00 0.00 44 1012.4
20260503173851 16 234 11.3 38.6 0.00 0.00 0.00 45 1012.4
20260503173348 15 201 24.1 38.6 0.00 0.00 0.00 44 1012.5
20260503172844 15 214 19.3 41.8 0.00 0.00 0.00 44 1012.6
20260503172342 16 231 9.7 24.1 0.00 0.00 0.00 46 1012.6
20260503171838 15 258 20.9 38.6 0.00 0.00 0.00 44 1012.6
20260503171335 15 268 12.9 30.6 0.00 0.00 0.00 46 1012.8
20260503170832 15 325 14.5 35.4 0.00 0.00 0.00 47 1012.7
20260503170328 15 200 11.3 41.8 0.00 0.00 0.00 47 1013.1
20260503150721 12 223 12.9 24.1 0.00 0.00 0.00 48 1014.3
20260503150217 12 313 6.4 27.4 0.00 0.00 0.00 48 1014.1
20260503140141 12 256 19.3 35.4 0.00 0.00 0.00 48 1014.1
20260503131111 10 236 3.2 16.1 0.00 0.00 0.00 54 1014.8
20260503130609 10 202 8.0 19.3 0.00 0.00 0.00 54 1014.5
20260503130106 9 253 11.3 27.4 0.00 0.00 0.00 56 1014.6
20260503110458 2 225 6.4 16.1 0.00 0.00 0.00 71 1014.8
20260503090344 -1 230 0.0 0.0 0.00 0.00 0.00 84 1015.6
20260503081312 0 225 0.0 3.2 0.00 0.00 0.00 84 1015.8
20260503080808 0 227 0.0 3.2 0.00 0.00 0.00 85 1016.1
20260503080305 -1 226 0.0 0.0 0.00 0.00 0.00 85 1015.6
20260503072741 -1 222 0.0 3.2 0.00 0.00 0.00 85 1015.8
20260503072238 -1 227 0.0 0.0 0.00 0.00 0.00 87 1015.9
20260503071735 -1 227 0.0 0.0 0.00 0.00 0.00 87 1015.8
20260503071231 -1 227 0.0 0.0 0.00 0.00 0.00 87 1015.8
20260503070728 -1 227 0.0 0.0 0.00 0.00 0.00 87 1016.0
20260503070226 -1 227 0.0 0.0 0.00 0.00 0.00 87 1016.0
20260503060151 0 224 0.0 3.2 0.00 0.00 0.00 84 1016.4
20260503054638 0 229 0.0 0.0 0.00 0.00 0.00 85 1016.6
20260503054135 0 226 0.0 0.0 0.00 0.00 0.00 85 1016.8
20260503053633 0 226 0.0 0.0 0.00 0.00 0.00 84 1016.8
20260503053132 0 226 0.0 3.2 0.00 0.00 0.00 84 1016.4
20260503052628 0 219 1.6 3.2 0.00 0.00 0.00 85 1016.7
20260503052124 0 227 0.0 0.0 0.00 0.00 0.00 86 1016.7
20260503051619 0 227 0.0 0.0 0.00 0.00 0.00 86 1016.7
20260503051118 0 227 0.0 0.0 0.00 0.00 0.00 85 1016.7
20260503050614 0 229 0.0 0.0 0.00 0.00 0.00 85 1016.7
20260503050110 0 226 0.0 0.0 0.00 0.00 0.00 86 1016.8
20260503045608 0 228 0.0 0.0 0.00 0.00 0.00 86 1016.9
20260503045105 0 224 0.0 0.0 0.00 0.00 0.00 86 1016.8
20260503044601 0 223 0.0 0.0 0.00 0.00 0.00 86 1016.8
20260503044059 0 223 0.0 0.0 0.00 0.00 0.00 86 1016.5
20260503043555 0 223 0.0 0.0 0.00 0.00 0.00 86 1016.9
20260503043052 0 224 0.0 0.0 0.00 0.00 0.00 87 1016.7
20260503042549 0 227 0.0 0.0 0.00 0.00 0.00 86 1016.8
20260503042045 0 229 0.0 0.0 0.00 0.00 0.00 87 1016.6
20260503041542 0 226 0.0 0.0 0.00 0.00 0.00 86 1016.8
20260503041040 0 227 0.0 0.0 0.00 0.00 0.00 86 1016.9
20260503040537 0 224 0.0 0.0 0.00 0.00 0.00 86 1016.9
20260503040034 0 225 0.0 0.0 0.00 0.00 0.00 86 1016.8
20260503035531 0 227 0.0 0.0 0.00 0.00 0.00 86 1016.9
20260503035029 0 227 0.0 0.0 0.00 0.00 0.00 86 1017.1
20260503034526 0 227 0.0 0.0 0.00 0.00 0.00 87 1016.9
20260503034023 0 227 0.0 0.0 0.00 0.00 0.00 87 1016.8
20260503033520 0 227 0.0 0.0 0.00 0.00 0.00 86 1017.0
20260503033018 0 227 0.0 0.0 0.00 0.00 0.00 86 1017.0
20260503032516 0 227 0.0 0.0 0.00 0.00 0.00 86 1017.1
20260503032014 0 227 0.0 0.0 0.00 0.00 0.00 85 1017.2
20260503031511 0 227 0.0 0.0 0.00 0.00 0.00 85 1017.1
20260503031008 0 227 0.0 0.0 0.00 0.00 0.00 85 1017.1
20260503030504 0 227 0.0 0.0 0.00 0.00 0.00 85 1016.9
20260503030001 0 227 0.0 0.0 0.00 0.00 0.00 84 1017.3
20260503025458 0 227 0.0 0.0 0.00 0.00 0.00 84 1017.2
20260503024956 0 227 0.0 0.0 0.00 0.00 0.00 83 1017.3
20260503024451 0 227 0.0 0.0 0.00 0.00 0.00 82 1017.3
20260503023949 1 227 0.0 0.0 0.00 0.00 0.00 82 1017.2
20260503023446 1 227 0.0 0.0 0.00 0.00 0.00 82 1017.4
20260503022943 1 227 0.0 0.0 0.00 0.00 0.00 81 1017.6
20260503022438 1 227 0.0 0.0 0.00 0.00 0.00 81 1017.5
20260503021934 1 227 0.0 0.0 0.00 0.00 0.00 81 1017.3
20260503021430 1 227 0.0 0.0 0.00 0.00 0.00 78 1017.4
20260503020928 1 227 0.0 0.0 0.00 0.00 0.00 76 1017.4
20260503020425 2 227 0.0 0.0 0.00 0.00 0.00 76 1017.4
20260503015922 2 227 0.0 0.0 0.00 0.00 0.00 76 1017.4
20260503015419 2 227 0.0 0.0 0.00 0.00 0.00 77 1017.1
20260503014914 2 227 0.0 0.0 0.00 0.00 0.00 76 1017.3
20260503014412 2 227 0.0 0.0 0.00 0.00 0.00 76 1017.4
20260503013910 2 227 0.0 0.0 0.00 0.00 0.00 74 1017.1
20260503013406 2 227 0.0 0.0 0.00 0.00 0.00 74 1017.1
20260503012903 2 227 0.0 0.0 0.00 0.00 0.00 73 1017.3
20260503012401 3 227 0.0 0.0 0.00 0.00 0.00 73 1017.2
20260503011857 3 227 0.0 0.0 0.00 0.00 0.00 69 1017.2
20260503011355 3 227 0.0 0.0 0.00 0.00 0.00 67 1017.1
20260503010851 3 227 0.0 0.0 0.00 0.00 0.00 69 1017.0
20260503010348 3 227 0.0 0.0 0.00 0.00 0.00 65 1017.1
20260503005845 4 227 0.0 0.0 0.00 0.00 0.00 63 1016.9
20260503005343 4 227 0.0 0.0 0.00 0.00 0.00 63 1017.2
20260503004838 5 227 0.0 0.0 0.00 0.00 0.00 64 1017.0
20260503004336 5 227 0.0 0.0 0.00 0.00 0.00 61 1017.0
20260503003834 5 227 0.0 0.0 0.00 0.00 0.00 62 1017.1
20260503003330 5 227 0.0 0.0 0.00 0.00 0.00 62 1017.0
20260503002827 6 227 0.0 0.0 0.00 0.00 0.00 62 1016.9
20260503002324 6 228 1.6 3.2 0.00 0.00 0.00 59 1017.0
20260503001821 6 221 0.0 3.2 0.00 0.00 0.00 60 1016.9
20260503001317 6 230 0.0 3.2 0.00 0.00 0.00 59 1017.0
20260503000815 7 220 1.6 3.2 0.00 0.00 0.00 57 1017.0
20260503000312 7 223 0.0 3.2 0.00 0.00 0.00 54 1017.0
20260502235809 7 227 3.2 4.8 0.00 0.00 0.00 53 1016.9
20260502235306 7 230 0.0 3.2 0.00 0.00 0.00 55 1017.0
20260502234803 7 230 0.0 3.2 0.00 0.00 0.00 53 1016.9
20260502234300 7 233 0.0 3.2 0.00 0.00 0.00 51 1016.8
20260502233756 7 228 0.0 4.8 0.00 0.00 0.00 51 1017.0
20260502233253 8 224 4.8 8.0 0.00 0.00 0.00 50 1017.2
20260502232749 8 268 3.2 4.8 0.00 0.00 0.00 50 1017.1
20260502232246 8 244 0.0 3.2 0.00 0.00 0.00 49 1017.3
20260502231742 8 237 4.8 8.0 0.00 0.00 0.00 50 1016.9
20260502231240 7 256 4.8 8.0 0.00 0.00 0.00 50 1017.1
20260502230739 7 238 0.0 4.8 0.00 0.00 0.00 50 1017.2
20260502230237 8 183 1.6 16.1 0.00 0.00 0.00 49 1017.1
20260502225733 8 242 4.8 11.3 0.00 0.00 0.00 49 1017.1
20260502225230 8 286 9.7 19.3 0.00 0.00 0.00 48 1017.2
20260502224726 7 211 0.0 11.3 0.00 0.00 0.00 49 1017.2
20260502224223 8 249 4.8 11.3 0.00 0.00 0.00 47 1017.2
20260502223720 8 216 3.2 11.3 0.00 0.00 0.00 47 1017.3
20260502223218 8 297 19.3 24.1 0.00 0.00 0.00 48 1017.2
20260502222716 7 241 1.6 11.3 0.00 0.00 0.00 50 1017.3
20260502222212 7 279 4.8 22.5 0.00 0.00 0.00 49 1017.3
20260502221708 7 274 8.0 16.1 0.00 0.00 0.00 49 1017.2
20260502221205 8 249 3.2 14.5 0.00 0.00 0.00 49 1017.2
20260502220701 7 260 9.7 24.1 0.00 0.00 0.00 50 1017.2
20260502220157 7 235 4.8 16.1 0.00 0.00 0.00 50 1017.4
20260502215654 7 234 3.2 16.1 0.00 0.00 0.00 51 1017.1
20260502215151 7 266 9.7 14.5 0.00 0.00 0.00 51 1017.3
20260502214649 7 251 11.3 16.1 0.00 0.00 0.00 50 1017.3
20260502214146 7 265 9.7 16.1 0.00 0.00 0.00 51 1017.4
20260502213643 7 329 11.3 14.5 0.00 0.00 0.00 50 1017.3
20260502213140 7 305 14.5 16.1 0.00 0.00 0.00 50 1017.1
20260502212639 7 344 12.9 16.1 0.00 0.00 0.00 50 1017.2
20260502212137 7 302 6.4 19.3 0.00 0.00 0.00 50 1017.2
20260502211632 7 201 0.0 11.3 0.00 0.00 0.00 52 1017.4
20260502211129 7 348 17.7 22.5 0.00 0.00 0.00 50 1017.3
20260502210627 7 255 8.0 19.3 0.00 0.00 0.00 51 1017.7
20260502210124 7 230 9.7 24.1 0.00 0.00 0.00 51 1017.4
20260502205620 7 255 4.8 14.5 0.00 0.00 0.00 48 1017.5
20260502205117 7 298 11.3 16.1 0.00 0.00 0.00 49 1017.5
20260502204614 7 285 14.5 22.5 0.00 0.00 0.00 48 1017.4
20260502204112 8 267 4.8 11.3 0.00 0.00 0.00 50 1017.5
20260502203609 7 231 17.7 24.1 0.00 0.00 0.00 48 1017.6
20260502203106 7 252 11.3 24.1 0.00 0.00 0.00 49 1017.7
20260502202601 7 312 16.1 22.5 0.00 0.00 0.00 50 1017.5
20260502202100 7 256 14.5 19.3 0.00 0.00 0.00 49 1017.8
20260502201555 7 231 6.4 30.6 0.00 0.00 0.00 49 1017.8
20260502201052 7 267 22.5 27.4 0.00 0.00 0.00 50 1017.6
20260502200548 7 272 12.9 22.5 0.00 0.00 0.00 49 1017.9
20260502200046 8 291 8.0 27.4 0.00 0.00 0.00 48 1018.0
20260502195544 8 273 4.8 16.1 0.00 0.00 0.00 49 1017.8
20260502195039 7 267 3.2 27.4 0.00 0.00 0.00 51 1017.8
20260502194536 7 248 6.4 22.5 0.00 0.00 0.00 51 1018.0
20260502194032 7 259 4.8 8.0 0.00 0.00 0.00 52 1018.1
20260502193530 6 265 12.9 33.8 0.00 0.00 0.00 51 1018.1
20260502193026 7 296 16.1 24.1 0.00 0.00 0.00 51 1018.1
20260502192522 7 332 20.9 24.1 0.00 0.00 0.00 50 1018.1
20260502192020 7 354 16.1 24.1 0.00 0.00 0.00 50 1018.1
20260502191516 7 347 19.3 22.5 0.00 0.00 0.00 51 1018.2
20260502191014 7 235 1.6 24.1 0.00 0.00 0.00 51 1018.3
20260502190512 7 338 14.5 38.6 0.00 0.00 0.00 51 1018.4
20260502190008 7 242 4.8 22.5 0.00 0.00 0.00 50 1018.5
20260502185503 7 246 8.0 16.1 0.00 0.00 0.00 50 1018.2
20260502185000 7 312 6.4 27.4 0.00 0.00 0.00 51 1018.5
20260502184455 7 301 12.9 38.6 0.00 0.00 0.00 51 1018.6
20260502183953 7 295 6.4 19.3 0.00 0.00 0.00 50 1018.5
20260502183449 7 221 3.2 14.5 0.00 0.00 0.00 49 1018.2
20260502182944 7 329 27.4 30.6 0.00 0.00 0.00 51 1018.6
20260502182440 7 281 12.9 16.1 0.00 0.00 0.00 51 1018.5
20260502181936 7 283 9.7 24.1 0.00 0.00 0.00 52 1018.5
20260502181434 6 285 19.3 24.1 0.00 0.00 0.00 51 1018.7
20260502180933 7 297 11.3 24.1 0.00 0.00 0.00 50 1018.7
20260502180430 7 269 11.3 22.5 0.00 0.00 0.00 49 1018.6